Terug naar catalogus

STARLINK-1278

ActiefCommunicatieVLEO
NORAD 45408·PAYLOAD·🇺🇸 United States

Gelanceerd Mar 18, 2020 vanaf Cape Canaveral Space Force Station

Loading…

Volgende Passages (komende 24 uur)

TLE

VersSource: CelesTrak SupGP

Epoch: Sep 14, 2026, 14:07 UTC

1 45408C 20019BA  26257.58868056  .00158140  00000+0  42510-3 0  2571
2 45408  53.0296 272.4253 0007580  29.1254   7.8905 15.93526752    11

Volg STARLINK-1278 in realtime met AllMySat

Download on the App Store